Location: Caseificio
(44.7500°N, 11.0500°E)
Time: 23:21:06
(UTC+00:00)

Cosmos 1536 Rocket - Pass Details

Date: 26 May 2022
Orbit: 604 x 633 km, 82.5° (Epoch: 26 June)

Event Time Altitude Azimuth Distance (km) Brightness Sun altitude
Exits shadow 02:08:05 20° 225° (SW) 1,448 4.8 -13.0°
Maximum altitude 02:10:41 39° 284° (WNW) 937 4.2 -12.7°
Drops below altitude 10° 02:14:49 10° 354° (N) 1,989 6.8 -12.2°
Sets 02:17:10 0° 2° (N) 2,895 7.8 -11.9°
